This is the latest recevied weather packets stored in our database for station/object KC5CAM-13. If no packets are shown the sender has not sent any weather packets the latest 1 day(s).
| Time | Temp. | Humidity | Pressure | Rain* | Wind** | Luminosity | Snow |
|---|---|---|---|---|---|---|---|
| 1778080667 | 12.22° C | 86% | 1017.5 hPa | 0 mm | - | 32 W/m² | - |
| 1778080363 | 12.22° C | 86% | 1017.4 hPa | 0 mm | - | 24 W/m² | - |
| 1778080060 | 12.22° C | 86% | 1017.1 hPa | 0 mm | - | 24 W/m² | - |
| 1778079757 | 12.22° C | 86% | 1016.7 hPa | 0 mm | - | 28 W/m² | - |
| 1778079454 | 11.67° C | 86% | 1016.4 hPa | 0 mm | - | 42 W/m² | - |
| 1778078242 | 11.67° C | 86% | 1015.7 hPa | 0 mm | - | 41 W/m² | - |
| 1778077638 | 12.22° C | 85% | 1016.1 hPa | 0 mm | - | 23 W/m² | - |
| 1778076429 | 11.67° C | 84% | 1016 hPa | 0 mm | - | 32 W/m² | - |
| 1778075215 | 11.67° C | 84% | 1015.3 hPa | 0 mm | - | 27 W/m² | - |
| 1778074003 | 11.67° C | 84% | 1014.9 hPa | 0 mm | - | 37 W/m² | - |
| 1778072790 | 11.67° C | 84% | 1014.6 hPa | 0 mm | - | 30 W/m² | - |
| 1778072488 | 11.67° C | 85% | 1014.6 hPa | 0 mm | - | 31 W/m² | - |
| 1778072186 | 11.67° C | 86% | 1014.7 hPa | 0 mm | - | 39 W/m² | - |
| 1778071883 | 11.67° C | 86% | 1014.6 hPa | 0 mm | - | 27 W/m² | - |
| 1778071581 | 11.67° C | 86% | 1014.4 hPa | 0 mm | - | 19 W/m² | - |
| 1778070976 | 11.11° C | 86% | 1014.6 hPa | 0 mm | - | 11 W/m² | - |
| 1778070069 | 11.11° C | 86% | 1014.3 hPa | 0 mm | - | 7 W/m² | - |
| 1778069462 | 11.11° C | 86% | 1014.1 hPa | 0 mm | - | 3 W/m² | - |
| 1778068857 | 11.11° C | 86% | 1014.2 hPa | 0 mm | - | 0 W/m² | - |
| 1778066740 | 11.67° C | 83% | 1013.5 hPa | 0 mm | - | 0 W/m² | - |
| 1778066437 | 11.67° C | 82% | 1013.4 hPa | 0 mm | - | 0 W/m² | - |
| 1778065227 | 12.22° C | 78% | 1013.3 hPa | 0 mm | - | 0 W/m² | - |
| 1778064923 | 12.78° C | 78% | 1013.2 hPa | 0 mm | - | 0 W/m² | - |
| 1778064016 | 12.78° C | 77% | 1013 hPa | 0 mm | - | 0 W/m² | - |
| 1778063713 | 12.78° C | 77% | 1012.8 hPa | 0 mm | - | 0 W/m² | - |
* Rain latest hour (hover to see other rain measurements)
** Current wind speed in m/s (hover to see current wind gust speed)